CZ-6A DEB

Satellite information

Favourite Embed

Satellite Type and Status

DEBRISIN ORBIT

Key statistics

Satellite CZ-6A DEB at a glance.

Uptime

1027

Days in orbit

Revolutions

≈ 14.3

Per day

Orbit

SSO

Sun Synchronous Orbit

Inclination

98.6

Latest

Satellite identification and parameters

Extended collection of information and parameters for CZ-6A DEB.

Object identification

Identified? True

Debris? True

Object name: CZ-6A DEB

International designator: 2022-151AET

Object number (NORAD): 56619

Object ID (CCSDS): 56619

Country: PEOPLES REPUBLIC OF CHINA (PRC)

Current information (Y/N): Y

RCS size: SMALL

Orbital parameters

Period: 100.682 minutes

Inclination: 98.5617 deg

SMA: 7169.066 km

Apoapsis: 845.075 km

Periapsis: 736.786 km

RAAN: 245.9244 deg

Eccentricy: 0.00755257

Argument of periapsis: 171.9655 deg

Mean anomaly: 188.2757 deg

Mean motion: 14.3024004 rev/day

Mean motion (dot): 0.00000593 rev/day2

B* drag term: 0.00023790746 1/REarth

Two-line elements (TLE)

Creation date: Sept. 2, 2025, 3:25 a.m.

Reference frame: TEME

Reference center: EARTH

Epoch: Sept. 1, 2025, 5:35 p.m. UTC

TLE line 0: 0 CZ-6A DEB

TLE line 1: 1 56619U 22151AET 25244.73320368 .00000593 00000-0 23791-3 0 9999

TLE line 2: 2 56619 98.5617 245.9244 0075526 171.9655 188.2757 14.30240040123310

Live tracking on map

Real-time ground track for satellite CZ-6A DEB.

In-orbit conjunctions

A list of the most updated potential collisions computed for object CZ-6A DEB.

Target Orbit TCA Probability of collision Miss distance Type
COSMOS 2263 LEO 2024-09-23 05:45:34 0.0007161264 594.0 (m) PAYLOAD

Associated space launch

Chinese satellite reported for atmospheric/ocean/environmental/spatial parameter research purposes, details TBD.

CZ-6A DEB was lifted into orbit during the mission ‘Long March 6A | Yunhai 3’, on board a Long March 6A space rocket.

The launch took place on Nov. 11, 2022, 10:52 p.m. from Launch Complex 9A.

For more information about the launch, click the button.

Launch to space Long March 6A | Yunhai 3
Long March 6A | Yunhai 3

Agency: N/A

Status: Launch Successful

Launch date: Nov. 11, 2022, 10:52 p.m. UTC

Rocket: Long March 6A

Launch pad: Launch Complex 9A

Location: Taiyuan Satellite Launch Center, People's Republic of China

...

Latest news about this satellite

There are no fresh news available about this satellite. Check back as we update our databases every day.


Newsletter sign-up

Weekly statistics, charts and insights to help you stay on top of the space industry.